Regional Weather Roundup
Issued by NWS

Home | Current Version | Previous Version | Graphics & Text | Print | Product List | Glossary On
Versions: 1 2 3 4 5 6 7 8 9 10 11 12 13 14 15 16 17 18 19 20 21 22 23 24 25 26 27 28 29 30 31 32 33 34 35 36 37 38 39 40 41 42 43 44 45 46 47 48 49 50
000
ASUS45 KTFX 251910
RWRMT
MONTANA REGIONAL WEATHER ROUNDUP
NATIONAL WEATHER SERVICE GREAT FALLS MT
1200 PM MST SAT FEB 25 2017

NOTE: "FAIR" INDICATES FEW OR NO CLOUDS BELOW 12000 FEET WITH NO
SIGNIFICANT WEATHER AND/OR OBSTRUCTIONS TO VISIBILITY.

MTZ001>007-043-252000-
WEST OF THE DIVIDE

CITY           SKY/WX    TMP DP  RH WIND       PRES   REMARKS
KALISPELL      CLOUDY    28  17  63 SW8       29.91F WCI  20
MISSOULA       CLOUDY    29  15  56 NW12      29.96F WCI  19
BUTTE          MOSUNNY   21   3  45 W12G22    29.82F WCI   9
MULLAN PASS    LGT SNOW  14  13  95 MISG      29.83S VSB 3/4
ANACONDA         N/A     23   5  46 W18G28    29.85F WCI   9
DEER LODGE       N/A     27   3  36 W12G18    29.87F WCI  16
EUREKA           N/A     30  12  47 E3        29.92S
HAMILTON         N/A     30   5  34 W10G24    29.96S WCI  21
LIBBY            N/A     32  12  43 NW6       29.93F WCI  26
RONAN            N/A     28  15  58 SW9       29.99F WCI  19
$$

MTZ008-052>055-252000-
SOUTHWEST MONTANA

CITY           SKY/WX    TMP DP  RH WIND       PRES   REMARKS
BOZEMAN        CLOUDY    25  10  53 W9        29.86F WCI  15
DILLON         PTSUNNY   25   6  44 SW18G28   29.87F WCI  11
W YELLOWSTONE  CLOUDY    14   7  73 SW14G20   29.84F HAZE    WCI  -1
ENNIS          PTSUNNY   25   3  39 SW14      29.90F WCI  13
THREE FORKS      N/A     29 -48   2 SW7       29.86F WCI  22
$$

MTZ009-010-012-014-046-048-049-054-252000-
EAST SLOPES AND CENTRAL MONTANA

CITY           SKY/WX    TMP DP  RH WIND       PRES   REMARKS
CUT BANK       SUNNY     28  10  46 W20       29.71F WCI  15
GREAT FALLS    CLOUDY    30   5  34 W20G31    29.75F WCI  17
MALMSTROM AFB  PTSUNNY   30   7  36 W16G24    29.77F WCI  19
HELENA         CLOUDY    29   8  41 W22G33    29.83F WCI  15
AUGUSTA          N/A     28   4  36 W23G35    29.73F WCI  14
BOWMANS CRNR     N/A     27   5  40 W26G35    29.74F WCI  11
POWER          PTSUNNY   30   5  34 W17G25    29.74F WCI  18
RAYNESFORD       N/A     27  11  51 W21G36    29.75F WCI  13
ULM            PTSUNNY   30   7  39 MISG      29.78F
$$

MTZ011-013-016-021-045-047-050-051-252000-
NORTH CENTRAL MONTANA

CITY           SKY/WX    TMP DP  RH WIND       PRES   REMARKS
HAVRE          SUNNY     30  18  60 W15       29.76F WCI  19
LEWISTOWN      PTSUNNY   27   9  46 W22G28    29.74F WCI  13
N BAR RANCH      N/A     23   7  50 W13G21    29.75F WCI  11
CHINOOK          N/A     27  19  74 W9        29.78F WCI  17
DENTON         PTSUNNY   29  10  44 W26G32    29.72F WCI  14
FORT BENTON      N/A     30  10  43 MISG      29.78F
GEYSER         PTSUNNY   28   4  36 W31G38    29.73F WCI  12
GRASS RANGE    PTSUNNY   27   9  48 W18G29    29.71F WCI  13
JUDITH GAP     FLURRIES  22   6  51 W22G31    29.73F WCI   6
ROY            PTSUNNY   29  14  54 MISG      29.72F
STANFORD         N/A     27   8  43 W21G28    29.73F WCI  13
WINIFRED       PTSUNNY   27   9  45 W20G25    29.73F WCI  14
$$

MTZ017>020-022>027-061-062-252000-
NORTHEAST MONTANA

CITY           SKY/WX    TMP DP  RH WIND       PRES   REMARKS
GLASGOW        CLOUDY    28  21  75 W13       29.76F WCI  17
JORDAN           N/A     33  17  51 W22G29    29.77F WCI  21
SIDNEY         FLURRIES  30  25  81 S9        29.79F WCI  22
WOLF POINT     CLOUDY    27  22  81 CALM      29.78F
PLENTYWOOD       N/A     18  16  93 NE8       29.77F VSB 3/4 WCI   7
POPLAR           N/A     28  21  74 CALM      29.78F
SCOBEY           N/A     20  11  68 SW7       29.75F WCI  11
$$

MTZ028>42-056>058-252000-
SOUTHCENTRAL AND SOUTHEAST MONTANA

CITY           SKY/WX    TMP DP  RH WIND       PRES   REMARKS
BAKER          MOSUNNY   31  15  52 W21       29.79F WCI  18
BILLINGS       MOSUNNY   30  17  58 SW22G30   29.80F WCI  17
LIVINGSTON     MOSUNNY   25  12  58 W16       29.80F WCI  12
MILES CITY     CLOUDY    34  22  61 SW17      29.80F WCI  23
BIG TIMBER     MOSUNNY   23  12  63 W21G28    29.82F WCI   8
EKALAKA          N/A     28  15  58 W9        29.78F WCI  19
FORSYTH          N/A     30  21  69 W16       29.80F WCI  19
HARLOWTON      PTSUNNY   25  11  55 W28G36    29.76F WCI   8
LAUREL           N/A     28  11  49 SW22      29.81F WCI  14
$$

REGIONAL REPORTS...DAKOTAS

CITY           SKY/WX    TMP DP  RH WIND       PRES   REMARKS
WILLISTON      LGT SNOW  23  19  85 SW8       29.79F FOG     WCI  14
MINOT          CLOUDY    23  15  71 NW12      29.81F WCI  12
DICKINSON      CLOUDY    25  18  74 W14       29.78F WCI  13
BEACH            N/A    N/A N/A N/A MISG        N/A
CROSBY         LGT SNOW  16  14  93 N5        29.83F
TIOGA          CLOUDY    19  18  93 CALM      29.79F
WATFORD CITY   CLOUDY    23  23 100 SW12      29.80F WCI  12
BISMARCK       CLOUDY    27  21  78 NW10      29.86S WCI  17
GRAND FORKS    PTSUNNY   31  18  58 NW15      29.80F WCI  20
FARGO          CLOUDY    31  22  69 W13       29.83F WCI  21
BUFFALO SD       N/A     32  12  43 W20G28    29.73F WCI  20
RAPID CITY     MOSUNNY   33  15  47 N6        29.83F WCI  28
$$

REGIONAL REPORTS...WYOMING/IDAHO/WASHINGTON

CITY           SKY/WX    TMP DP  RH WIND       PRES   REMARKS
GILLETTE       CLOUDY    25  18  74 SW12      29.80F WCI  14
SHERIDAN       SUNNY     27  16  63 SE9       29.80F WCI  18
BUFFALO WY     PTSUNNY   24  16  71 S8        29.77F WCI  15
CODY           SUNNY     29   5  36 SW15G23   29.80F WCI  18
YELLOWSTONE LA   N/A     11   0  61 W9G23     29.78S WCI  -2
IDAHO FALLS    MOSUNNY   17  11  77 SW18      30.02S WCI   1
SALMON         CLOUDY    28   9  43 S17       29.97F WCI  16
BOISE          SUNNY     33  16  49 CALM      30.15S
SPOKANE        MOSUNNY   27  22  81 W10       30.06F WCI  17
$$

REGIONAL REPORTS...ALBERTA

CITY           SKY/WX    TMP DP  RH WIND       PRES   REMARKS
EDMONTON       CLOUDY    21  10  63 W10       29.65F WCI  10
CALGARY        MOSUNNY   19  10  68 S3        29.63F
LETHBRIDGE     MOSUNNY   32  16  51 W14G21    29.70F WCI  22
MEDICINE HAT   CLOUDY    19  16  86 W5        29.76F
WATERTON GATE    N/A     27   9  46 SW24G36     N/A  WCI  12
CARDSTON         N/A     28   9  43 W17G28      N/A  WCI  16
MILK RIVER       N/A     30  12  47 W21G28      N/A  WCI  17
$$

REGIONAL REPORTS...SASKATCHEWAN

CITY           SKY/WX    TMP DP  RH WIND       PRES   REMARKS
SWIFT CURRENT  CLOUDY    14   9  79 VRB2      29.74F
REGINA         PTSUNNY   14   5  67 NW10      29.80F WCI   1
SASKATOON      PTSUNNY   12   3  67 SW8       29.82F WCI   1
CYPRESS HILLS    N/A     18  10  73 SW7         N/A  WCI   8
VAL MARIE        N/A     19  16  86 NE5         N/A
ROCKGLEN         N/A     14  10  85 N6          N/A  WCI   5
ASSINIBOIA       N/A     19  10  68 SW8         N/A  WCI   9
$$



USA.gov is the U.S. government's official web portal to all federal, state and local government web resources and services.